Location: ????
(30.1475°N, 31.1342°E)
Time: 04:44:44
(UTC+00:00)

ATLAS CENTAUR R/B - Pass Details

Date: 27 September 2022
Orbit: 442 x 677 km, 64.7° (Epoch: 29 November)

Event Time Altitude Azimuth Distance (km) Brightness Sun altitude
Exits shadow 00:10:03 - 93° (E) 2,868 5.5 -45.6°
Enters shadow 01:15:42 -55° 208° (SSW) 10,989 8.0 -32.9°
Maximum altitude 01:46:39 55° 114° (ESE) 801 2.3 -26.5°
